Regional Weather Roundup
Issued by NWS Sioux Falls, SD

Home | Current Version | Previous Version | Graphics & Text | Print | Product List | Glossary On
Versions: 1 2 3 4 5 6 7 8 9 10 11 12 13 14 15 16 17 18 19 20 21 22 23 24 25 26 27 28 29 30 31 32 33 34 35 36 37 38 39 40 41 42 43 44 45 46 47 48 49 50
000
ASUS43 KFSD 261310
RWRFSD

WEATHER ROUNDUP FOR SE SOUTH DAKOTA/SW MINNESOTA/NW IOWA
NATIONAL WEATHER SERVICE SIOUX FALLS SD
700 AM CST MON JAN 26 2015

NOTE: "FAIR" INDICATES FEW OR NO CLOUDS BELOW 12,000 FEET WITH NO
SIGNIFICANT WEATHER AND OR OBSTRUCTIONS TO VISIBILITY.


SDZ038>040-050-052>070-261400-
SOUTHEAST SOUTH DAKOTA

CITY           SKY/WX    TMP DP  RH WIND       PRES   REMARKS
CHAMBERLAIN    CLEAR     39  33  78 W14       29.89R
HURON          CLEAR     36  32  85 NW15      29.84R
MADISON        FAIR      32  32 100 NW13      29.78R WCI  22
MITCHELL       CLEAR     37  32  82 W14       29.85R
SIOUX FALLS    PTCLDY    36  31  82 NW14      29.79S
WINNER         FAIR      43  32  65 W12       29.93R
YANKTON        CLEAR     37  30  75 W15       29.84R
$$

MNZ071-072-080-081-089-090-097-098-261400-
SOUTHWEST MINNESOTA

CITY           SKY/WX    TMP DP  RH WIND       PRES   REMARKS
FAIRMONT       CLOUDY    34  28  80 SW18G29   29.71R WCI  23
JACKSON        CLOUDY    34  32  93 SW18G26   29.73S WCI  23
LUVERNE        MOCLDY    34  32  93 W12       29.78S WCI  25
MARSHALL       MOCLDY    36  28  75 NW13      29.74R
MONTEVIDEO     PTCLDY    37  37 100 NW13G20   29.71
PIPESTONE      PTCLDY    34  30  86 W13       29.75R WCI  25
REDWOOD FALLS  MOCLDY    37  31  78 W17       29.70R
TRACY          MOCLDY    38  33  82 W12G17    29.73R
WINDOM         CLOUDY    36  32  87 SW16G23   29.72R
WORTHINGTON    CLOUDY    34  28  80 W17G26    29.75S WCI  23
$$

IAZ001>003-012>014-020>022-031-032-NEZ013-014-SDZ071-261400-
NORTHWEST IOWA

CITY           SKY/WX    TMP DP  RH WIND       PRES   REMARKS
CHEROKEE       CLOUDY    33  32  94 SW10      29.80S WCI  25
DENISON        CLOUDY    34  32  93 SW12      29.81F WCI  25
ESTHERVILLE    CLOUDY    33  30  88 SW28      29.71F WCI  20
LE MARS        MOCLDY    34  30  86 S7        29.82R WCI  28
ORANGE CITY    PTCLDY    34  30  86 W8        29.80R WCI  27
SHELDON        MOCLDY    32  32 100 SW12      29.76S WCI  23
SIOUX CITY     MOCLDY    33  29  85 W3        29.83F
SPENCER        CLOUDY    35  30  82 SW16      29.77S WCI  25
STORM LAKE     CLOUDY    34  30  86 SW23      29.78F WCI  22
$$

ABBREVIATIONS USED IN REMARKS
   TC - TEMPERATURE IN CELSIUS
  WCI - WIND CHILL INDEX
   HX - HEAT INDEX
  VSB - VISIBILITY




USA.gov is the U.S. government's official web portal to all federal, state and local government web resources and services.